Temp
20 21 21 22 17 15 17 18 19 19 18 19 19 19 16 14 16 15 15 15 15 15 16 16 15 15 14 14 14 14 14 14 14 13 13 13 12 13 13 14 13 14 15 15 14 13 14 14 14
20 20 21 21 16 16 16 18 18 18 17 18 18 17 16 14 14 14 14 15 15 15 15 15 15 14 14 14 14 14 14 14 14 13 13 13 12 12 12 12 12 14 14 14 13 14 14 14 13
20 20 20 15 13 16 16 18 17 17 18 19 16 16 15 14 15 14 14 15 15 15 15 16 15 15 14 14 14 14 15 14 13 13 13 13 13 13 12 12 12 14 14 13 13 14 14 13 12
19 20 19 16 17 17 18 17 17 17 18 18 17 14 15 15 15 14 15 15 15 15 16 16 16 15 14 14 14 15 14 13 13 13 13 12 13 13 13 13 14 14 13 13 13 13 13 12 12
19 19 15 16 17 18 17 18 18 17 18 17 18 13 14 14 15 15 15 14 14 15 15 16 16 15 15 15 14 14 13 13 13 13 13 12 14 14 14 14 14 13 13 13 13 13 12 12 12
18 17 15 16 17 18 18 18 18 18 18 17 16 14 14 15 15 15 15 14 14 15 15 15 15 15 15 15 14 14 13 13 13 13 13 13 14 14 14 13 13 13 13 13 13 12 11 11 11
16 14 16 16 17 18 19 19 18 17 17 18 18 12 14 14 14 15 14 14 14 14 15 15 15 15 15 15 15 13 12 12 12 13 13 13 13 14 14 13 13 13 13 13 12 12 11 11 11
17 15 16 17 17 18 18 18 19 18 17 17 18 13 13 15 14 14 14 14 13 14 14 15 15 15 15 15 14 14 13 12 12 12 13 14 14 14 14 14 13 13 13 13 12 12 12 11 11
16 13 14 16 17 17 18 18 18 18 17 17 17 18 18 16 14 14 14 14 14 14 14 14 15 15 14 14 14 13 13 12 12 13 14 14 14 14 14 13 13 13 13 12 12 12 12 11 11
14 13 15 17 16 17 17 18 18 18 17 16 17 18 18 16 14 14 14 14 13 14 14 14 15 15 14 14 14 13 12 11 12 12 13 14 13 13 13 13 13 13 13 12 12 12 12 11 11
13 13 15 17 17 17 17 18 18 17 16 17 18 18 17 16 14 14 14 14 14 14 14 14 14 15 14 14 14 14 13 12 12 12 13 13 13 13 13 13 13 13 12 12 12 12 12 11 11
13 14 14 16 16 17 17 18 18 17 19 19 19 19 18 16 15 14 14 14 14 14 14 13 13 14 14 14 13 13 13 12 12 13 13 13 13 13 12 12 12 12 12 12 12 12 11 11 10
12 14 14 16 15 16 17 17 17 18 19 19 19 18 18 17 16 15 14 14 15 14 14 13 13 13 13 13 14 14 13 13 13 12 12 12 12 12 12 12 12 12 12 12 11 11 11 11 10
13 13 14 15 15 16 16 17 17 19 19 19 18 18 17 17 17 15 14 14 14 14 14 13 13 13 13 13 13 14 14 13 13 13 13 13 12 12 12 12 12 12 12 12 11 11 11 10 10
12 13 12 14 14 15 16 15 14 19 19 18 17 17 17 17 16 15 15 14 14 14 14 13 13 13 13 13 13 14 14 14 14 14 14 13 13 13 12 12 12 12 12 12 11 11 11 10 9
12 12 11 13 14 15 15 14 15 18 18 17 17 16 16 16 16 16 16 15 14 14 14 14 14 14 13 13 13 13 13 14 14 13 14 13 13 13 13 13 12 12 11 11 11 11 10 10 9
10 9 9 11 13 14 14 14 17 18 17 17 17 17 17 16 15 16 16 15 14 14 13 14 14 14 13 13 12 13 13 13 13 13 13 13 13 13 13 13 12 12 12 12 11 10 10 10 9
9 10 10 10 13 11 12 12 13 16 16 17 17 18 17 17 17 17 17 16 15 14 13 13 13 13 13 13 12 12 12 13 13 14 14 14 13 13 13 13 13 12 12 11 11 10 10 9 9
10 10 10 11 11 12 11 12 14 15 15 15 16 16 17 17 19 18 17 16 16 15 14 13 13 13 13 12 12 12 12 12 13 14 14 14 13 13 13 13 12 12 12 12 11 10 10 9 9
10 10 10 10 11 10 11 11 12 13 14 15 16 17 18 17 18 18 18 17 16 17 16 14 14 13 13 13 13 12 12 13 13 13 14 13 13 13 13 13 13 12 12 12 11 10 10 9 9
9 9 10 11 10 11 11 10 12 11 14 15 15 17 17 18 18 18 18 18 18 17 17 16 16 15 14 13 13 12 12 12 12 12 13 14 14 14 13 13 13 12 12 12 11 11 10 10 9
9 9 10 10 10 9 11 10 11 12 12 12 15 16 17 17 18 18 19 19 19 18 18 18 16 16 15 14 13 13 13 13 13 14 14 14 14 14 13 13 12 12 12 12 12 11 10 10 10
10 10 9 9 9 10 10 10 10 11 12 11 13 15 16 18 18 18 18 18 19 19 19 18 18 17 15 15 14 13 13 13 13 13 14 13 14 13 14 13 13 13 12 12 12 11 10 10 10
9 9 9 8 8 9 11 10 12 12 11 12 14 16 17 18 18 18 18 18 18 18 18 18 18 18 17 15 15 14 13 13 13 14 14 14 14 14 13 13 13 13 13 12 12 11 10 10 10
10 8 9 9 9 9 10 8 12 12 12 12 14 15 17 18 18 18 17 18 18 18 18 17 18 18 18 17 15 15 15 14 13 14 14 14 15 15 15 14 14 14 14 13 12 11 11 10 10
9 10 9 9 8 9 8 9 11 11 15 15 16 17 16 17 17 18 18 18 18 18 18 18 18 18 18 17 17 16 15 15 14 14 14 15 15 15 15 14 14 14 13 13 13 12 12 11 10
8 9 10 9 0 5 7 8 11 10 10 13 14 15 16 17 17 17 17 17 18 18 19 18 18 18 18 18 18 17 16 16 15 15 14 14 14 15 14 14 14 13 13 13 13 12 12 11 11
9 10 8 8 8 7 8 7 11 12 11 12 15 15 16 17 17 16 17 17 17 18 19 18 17 17 17 18 17 18 17 16 16 15 15 15 15 14 14 13 13 13 13 12 12 12 12 11 11
8 9 8 9 7 8 8 11 8 12 12 13 13 14 15 16 17 17 17 17 17 17 18 18 18 17 16 16 16 16 17 17 16 15 15 15 14 14 13 13 12 12 12 11 11 11 11 11 12
10 10 10 9 8 7 6 11 11 10 9 10 12 14 15 16 16 15 15 16 16 16 17 17 17 16 16 16 15 15 15 15 14 14 14 13 13 13 12 12 12 11 11 11 11 11 11 11 11
Height
1548 1547 1546 1546 1555 1559 1562 1557 1549 1550 1550 1548 1548 1548 1551 1555 1556 1566 1558 1560 1561 1564 1566 1568 1569 1571 1572 1573 1574 1575 1575 1576 1576 1577 1577 1577 1576 1575 1575 1575 1575 1575 1575 1574 1575 1575 1574 1574 1574
1548 1548 1548 1547 1562 1571 1565 1551 1551 1549 1549 1549 1549 1551 1553 1556 1556 1557 1558 1560 1562 1565 1567 1568 1569 1571 1572 1574 1575 1576 1577 1577 1578 1578 1578 1579 1578 1578 1577 1577 1578 1577 1577 1577 1577 1576 1577 1577 1577
1547 1548 1549 1552 1567 1568 1564 1548 1548 1549 1548 1548 1550 1553 1555 1556 1556 1558 1559 1560 1562 1566 1568 1569 1570 1572 1573 1574 1576 1577 1577 1578 1578 1579 1580 1580 1580 1580 1580 1580 1580 1580 1580 1580 1579 1579 1579 1580 1580
1549 1550 1552 1558 1562 1552 1549 1546 1547 1549 1551 1550 1549 1554 1556 1556 1557 1559 1561 1563 1564 1567 1568 1570 1571 1572 1574 1575 1577 1578 1579 1579 1580 1580 1581 1581 1581 1582 1582 1582 1582 1582 1582 1582 1582 1582 1583 1583 1583
1549 1550 1560 1562 1558 1550 1545 1544 1545 1548 1549 1550 1550 1555 1556 1558 1558 1560 1561 1564 1566 1567 1569 1570 1572 1573 1575 1576 1577 1578 1580 1582 1582 1581 1581 1582 1583 1584 1584 1585 1584 1584 1585 1585 1585 1585 1585 1585 1585
1550 1552 1564 1566 1557 1549 1546 1545 1546 1549 1550 1550 1551 1555 1556 1559 1559 1561 1563 1566 1568 1569 1569 1571 1573 1574 1576 1577 1578 1580 1582 1583 1583 1583 1583 1584 1584 1585 1586 1586 1586 1587 1587 1588 1587 1587 1587 1587 1587
1551 1555 1559 1559 1556 1552 1548 1547 1547 1548 1550 1550 1551 1555 1556 1558 1560 1562 1564 1567 1569 1570 1570 1571 1573 1575 1577 1578 1580 1581 1583 1584 1585 1585 1584 1585 1586 1587 1587 1588 1588 1589 1589 1589 1589 1589 1589 1588 1587
1551 1553 1556 1555 1556 1554 1548 1547 1548 1548 1551 1550 1551 1553 1556 1555 1559 1562 1565 1567 1569 1570 1571 1572 1574 1576 1578 1579 1580 1581 1583 1583 1584 1585 1585 1586 1586 1587 1589 1589 1590 1590 1590 1590 1590 1590 1590 1590 1589
1551 1558 1561 1554 1552 1553 1549 1548 1548 1549 1550 1550 1550 1551 1552 1554 1558 1562 1563 1566 1568 1570 1571 1572 1574 1576 1578 1579 1580 1582 1583 1584 1585 1586 1586 1588 1588 1589 1590 1590 1591 1591 1591 1591 1591 1591 1591 1591 1590
1551 1557 1554 1549 1546 1549 1549 1548 1548 1550 1550 1551 1550 1550 1551 1552 1555 1558 1560 1562 1565 1567 1570 1572 1574 1575 1577 1579 1580 1581 1583 1584 1585 1586 1587 1588 1589 1590 1591 1591 1591 1591 1592 1592 1592 1592 1592 1592 1591
1551 1553 1549 1548 1546 1545 1548 1548 1548 1548 1551 1548 1548 1548 1550 1551 1553 1557 1558 1560 1563 1567 1569 1570 1573 1574 1576 1578 1580 1581 1582 1584 1585 1586 1587 1588 1589 1589 1590 1591 1592 1592 1593 1593 1593 1593 1593 1592 1592
1553 1549 1547 1546 1546 1543 1546 1548 1547 1547 1547 1546 1547 1547 1548 1550 1550 1552 1556 1558 1562 1564 1567 1570 1571 1573 1576 1578 1579 1581 1582 1583 1584 1586 1587 1588 1589 1590 1591 1592 1592 1592 1593 1593 1593 1593 1593 1593 1592
1551 1548 1546 1544 1545 1548 1545 1547 1547 1546 1546 1546 1545 1546 1547 1548 1550 1552 1555 1558 1561 1563 1565 1568 1570 1572 1574 1576 1577 1579 1581 1582 1584 1585 1587 1588 1589 1590 1591 1592 1592 1593 1593 1593 1593 1593 1593 1593 1592
1548 1547 1545 1545 1544 1547 1547 1544 1545 1543 1544 1544 1544 1545 1546 1547 1547 1551 1553 1555 1557 1561 1562 1565 1567 1570 1572 1573 1575 1577 1579 1581 1582 1584 1585 1587 1588 1589 1590 1591 1592 1592 1593 1593 1593 1593 1593 1593 1593
1549 1550 1547 1544 1544 1545 1547 1547 1544 1542 1542 1543 1543 1544 1545 1546 1547 1547 1549 1550 1554 1556 1561 1562 1565 1568 1570 1571 1574 1575 1576 1578 1580 1582 1584 1585 1586 1588 1589 1590 1591 1591 1592 1592 1593 1593 1593 1593 1593
1551 1552 1555 1542 1544 1544 1548 1547 1540 1539 1539 1540 1542 1543 1543 1543 1544 1546 1547 1549 1552 1555 1557 1561 1563 1565 1568 1570 1572 1573 1574 1576 1577 1579 1581 1583 1584 1585 1586 1588 1589 1590 1591 1592 1592 1592 1592 1592 1592
1553 1559 1558 1549 1542 1544 1544 1542 1535 1536 1535 1537 1538 1539 1540 1541 1542 1543 1543 1545 1548 1551 1554 1557 1559 1561 1564 1567 1570 1571 1572 1573 1575 1577 1578 1580 1582 1583 1584 1585 1586 1588 1589 1589 1589 1590 1590 1590 1591
1555 1555 1554 1553 1542 1544 1545 1538 1533 1534 1534 1532 1533 1535 1535 1536 1537 1538 1540 1542 1544 1547 1549 1552 1555 1557 1560 1563 1565 1567 1568 1568 1570 1573 1574 1577 1578 1580 1581 1583 1584 1585 1585 1586 1587 1587 1588 1588 1589
1547 1549 1550 1546 1543 1544 1544 1538 1533 1532 1532 1531 1530 1529 1529 1529 1532 1534 1536 1538 1540 1542 1544 1545 1549 1551 1554 1556 1559 1561 1561 1563 1565 1567 1570 1572 1574 1576 1577 1579 1581 1582 1583 1584 1585 1585 1584 1585 1586
1548 1549 1550 1546 1542 1546 1543 1537 1529 1527 1527 1524 1524 1524 1522 1524 1527 1527 1530 1532 1533 1535 1537 1541 1542 1546 1547 1549 1553 1555 1557 1558 1561 1563 1565 1567 1569 1572 1573 1574 1576 1578 1579 1580 1581 1581 1581 1582 1583
1548 1550 1549 1548 1545 1541 1541 1535 1523 1519 1518 1516 1516 1516 1517 1516 1518 1521 1523 1524 1526 1527 1530 1533 1535 1538 1541 1544 1547 1550 1553 1554 1555 1556 1559 1561 1564 1566 1568 1570 1572 1573 1574 1575 1577 1578 1578 1578 1580
1546 1544 1546 1548 1551 1555 1541 1540 1519 1513 1512 1509 1506 1506 1506 1509 1511 1513 1514 1516 1517 1520 1524 1527 1530 1531 1534 1538 1540 1542 1543 1544 1547 1550 1554 1556 1559 1560 1562 1564 1566 1568 1569 1569 1570 1572 1572 1573 1574
1540 1540 1543 1546 1550 1549 1543 1546 1514 1510 1507 1503 1498 1497 1497 1500 1502 1502 1504 1508 1511 1515 1516 1519 1522 1524 1527 1530 1532 1535 1537 1539 1542 1545 1547 1550 1553 1555 1556 1558 1560 1561 1562 1563 1564 1566 1567 1568 1568
1536 1543 1546 1550 1552 1552 1528 1542 1507 1504 1502 1496 1492 1490 1490 1491 1491 1493 1496 1499 1501 1506 1509 1511 1513 1516 1519 1523 1525 1526 1529 1533 1534 1535 1538 1541 1545 1548 1550 1552 1554 1555 1555 1556 1558 1560 1561 1561 1562
1535 1545 1547 1547 1548 1537 1521 1537 1503 1495 1493 1491 1487 1485 1483 1483 1484 1485 1487 1490 1491 1493 1496 1501 1503 1506 1510 1513 1517 1519 1520 1525 1527 1529 1531 1534 1537 1538 1541 1544 1546 1547 1548 1549 1551 1552 1553 1554 1554
1532 1534 1537 1538 1541 1528 1527 1524 1494 1486 1482 1481 1480 1478 1478 1477 1478 1478 1480 1482 1483 1483 1486 1490 1494 1497 1501 1504 1508 1511 1514 1516 1518 1521 1523 1524 1526 1529 1532 1535 1538 1540 1541 1542 1543 1545 1546 1545 1545
1529 1526 1527 1534 1566 1548 1524 1505 1488 1483 1482 1478 1474 1471 1469 1469 1473 1473 1475 1477 1478 1477 1478 1481 1485 1489 1492 1495 1499 1503 1506 1508 1509 1512 1515 1516 1518 1520 1523 1525 1528 1531 1533 1535 1536 1536 1536 1535 1535
1516 1522 1533 1532 1533 1538 1517 1512 1489 1479 1480 1474 1469 1463 1462 1463 1466 1467 1469 1471 1473 1473 1472 1474 1477 1480 1484 1488 1491 1495 1499 1501 1504 1505 1506 1508 1511 1512 1514 1516 1518 1521 1524 1525 1526 1526 1526 1526 1526
1516 1519 1524 1520 1525 1521 1513 1491 1477 1470 1468 1466 1460 1459 1460 1461 1461 1462 1464 1466 1466 1468 1468 1469 1470 1473 1476 1479 1484 1488 1492 1494 1496 1497 1499 1500 1503 1505 1506 1509 1510 1512 1514 1516 1516 1516 1518 1517 1517
1506 1506 1511 1515 1512 1515 1520 1480 1463 1464 1464 1465 1458 1458 1456 1457 1456 1458 1461 1463 1462 1465 1465 1465 1466 1467 1471 1474 1477 1482 1486 1488 1489 1490 1492 1494 1495 1498 1499 1502 1502 1503 1504 1506 1507 1507 1508 1509 1509
Wind_Speed
7 6 6 3 4 4 2 4 1 3 1 2 3 4 7 5 2 3 18 12 13 18 16 11 10 12 12 11 11 10 8 8 10 11 7 8 7 9 14 15 14 15 14 14 15 15 14 16 17
5 5 4 2 4 2 4 3 5 3 10 14 11 7 5 2 3 10 18 13 11 19 15 10 12 13 13 12 11 8 7 10 12 9 6 6 7 12 14 14 14 15 15 14 15 14 13 14 16
6 5 2 4 3 4 4 3 5 7 16 3 6 7 3 3 4 18 13 15 19 16 12 11 12 13 13 13 10 8 10 14 13 8 2 6 8 9 13 13 13 15 15 15 15 13 12 13 14
3 2 4 3 3 5 4 5 7 9 4 5 12 7 4 3 13 10 16 15 18 14 12 12 11 12 13 11 9 9 15 15 13 8 5 7 7 7 11 12 13 14 15 15 14 13 13 13 14
1 3 2 0 4 4 3 9 15 5 5 8 6 5 6 11 8 10 16 16 16 15 12 11 10 11 10 9 9 15 18 17 13 9 6 7 10 10 11 11 12 14 14 14 13 12 12 11 12
2 2 2 2 3 4 1 10 6 4 6 9 7 9 7 10 9 14 14 15 13 12 12 11 11 9 10 11 14 18 17 15 13 11 11 8 10 11 11 11 12 12 12 13 12 11 11 9 9
4 3 4 0 2 3 4 8 3 7 7 4 12 6 6 13 12 15 13 12 11 12 12 11 11 11 10 11 14 17 17 15 12 10 8 10 10 10 10 10 11 11 12 12 11 10 9 8 5
2 3 4 3 0 3 1 5 4 7 2 14 8 6 5 19 20 17 16 15 13 12 12 12 12 11 11 11 13 15 16 16 14 10 10 10 11 10 9 10 10 10 10 10 9 8 6 5 3
2 3 2 5 4 4 2 1 5 5 13 6 9 5 4 20 26 22 21 20 18 15 13 14 13 12 11 9 11 13 15 15 13 11 9 9 10 10 10 10 9 9 10 10 8 6 4 4 1
3 3 5 3 5 1 4 2 7 4 7 3 8 9 10 23 30 29 28 26 23 21 16 15 15 14 14 11 11 12 14 14 13 12 10 11 11 10 10 11 10 10 9 8 7 5 3 2 2
2 5 3 3 5 8 5 1 0 8 3 9 13 13 17 27 31 30 28 25 23 19 16 16 17 17 15 13 12 13 14 14 14 12 13 13 12 12 11 11 10 9 8 7 5 4 3 2 2
1 7 5 4 2 3 5 6 2 10 4 8 11 13 17 29 30 31 29 27 23 21 19 16 19 19 17 15 14 14 16 15 14 13 14 13 12 12 11 10 9 9 8 6 5 4 3 2 2
2 3 7 11 11 12 4 7 4 8 7 7 10 16 17 23 27 29 27 26 24 25 22 20 19 21 18 17 16 16 16 16 15 16 14 15 13 12 11 11 10 9 8 7 5 5 4 3 3
4 6 4 7 7 6 3 3 2 6 9 11 13 17 19 21 25 29 30 30 30 28 26 23 22 20 19 19 17 17 18 18 18 17 15 14 14 13 12 12 11 10 9 7 7 6 5 5 4
2 2 6 8 4 2 1 5 7 12 7 12 16 19 21 21 26 30 29 32 32 31 28 27 26 23 22 21 20 18 19 20 21 18 17 16 15 14 14 13 13 11 10 10 9 8 8 8 6
3 1 2 3 8 6 6 11 13 13 12 13 15 18 22 25 26 26 29 32 34 34 34 30 28 28 26 24 22 21 20 22 22 20 19 18 16 16 15 15 14 13 12 11 11 10 9 9 8
2 3 3 6 7 2 6 7 14 23 19 17 17 19 23 26 28 28 28 29 30 32 35 34 32 31 30 27 26 24 22 23 24 23 22 20 19 18 17 18 15 15 14 14 13 12 12 11 10
5 3 3 6 4 5 7 13 9 11 20 23 24 25 26 28 29 26 26 27 28 31 34 36 36 36 35 32 30 30 27 26 26 25 24 22 22 21 21 20 18 18 18 17 16 15 14 12 12
4 4 7 2 6 4 8 17 18 24 23 19 22 26 34 35 27 28 29 27 27 30 34 36 38 39 38 41 38 37 36 32 30 30 26 25 25 24 24 23 21 21 20 18 17 16 17 17 16
1 1 2 4 6 5 8 14 11 16 17 28 32 32 30 34 33 32 30 32 32 28 31 35 36 39 38 42 43 40 38 36 31 31 30 28 27 27 27 26 24 24 23 22 21 21 20 20 20
5 7 2 3 6 3 3 10 14 8 26 32 34 35 37 34 35 35 34 36 35 35 33 32 34 37 38 39 43 43 41 39 37 36 35 32 30 30 30 29 27 27 27 26 24 23 23 23 22
13 8 5 5 3 4 1 7 9 5 15 13 32 38 42 42 39 37 36 35 34 33 35 33 35 36 38 39 43 45 46 45 42 39 36 34 33 32 32 32 31 30 29 30 28 26 25 24 25
5 6 10 6 7 5 5 6 7 6 12 11 22 33 41 45 44 44 45 43 42 37 38 35 36 39 39 40 44 44 46 46 44 43 41 38 36 35 34 34 33 33 33 32 31 30 30 28 29
8 4 4 4 2 11 21 9 8 10 7 8 17 34 40 40 42 46 44 41 45 44 44 44 43 43 40 40 42 46 45 45 46 47 44 42 40 39 38 37 37 37 36 35 34 33 33 33 33
9 5 3 5 5 10 7 8 21 7 8 11 18 29 36 38 38 37 37 39 38 40 43 46 43 46 44 42 42 42 45 45 46 46 46 45 43 43 41 40 40 40 40 38 37 37 36 37 38
15 13 4 6 5 6 3 8 8 11 27 31 36 37 33 31 29 28 32 30 31 32 34 38 42 44 47 45 41 40 41 44 44 44 44 43 44 44 44 43 43 42 42 40 40 40 39 40 42
4 15 5 3 2 2 5 9 6 8 9 16 29 37 42 42 37 30 25 25 24 26 30 35 40 43 47 48 43 42 38 39 41 41 43 43 43 43 43 43 42 42 41 41 41 42 43 43 44
8 7 5 6 5 6 6 6 8 1 10 12 18 29 36 33 30 30 30 28 28 25 22 26 32 39 43 45 47 43 39 37 37 39 41 40 40 42 42 41 42 41 40 39 40 42 43 46 46
7 7 6 2 4 4 4 8 8 16 14 15 18 20 24 26 20 19 19 21 22 23 23 23 28 31 34 38 42 46 41 38 38 40 40 39 39 39 40 40 39 38 38 38 39 41 41 44 44
14 18 14 6 6 3 1 13 5 6 8 14 25 27 20 16 11 13 14 16 16 17 15 18 22 23 25 27 33 39 41 40 40 40 39 38 38 37 37 37 36 37 37 37 37 38 38 40 40
Wind_Direction
315 309 314 328 51 60 264 249 178 143 91 328 133 124 127 62 120 200 144 153 165 176 165 162 164 161 160 149 142 137 130 121 109 111 112 94 76 96 100 102 98 98 96 96 98 100 94 87 86
315 316 315 54 91 73 269 260 179 184 139 111 86 79 59 93 117 147 150 161 167 174 175 175 176 171 166 161 158 148 130 129 125 129 133 124 117 91 101 100 98 98 97 101 104 95 90 86 84
338 337 353 87 101 177 219 225 168 133 148 148 105 82 74 118 154 155 159 159 160 171 171 174 178 174 176 174 170 163 150 143 144 141 156 170 124 101 102 101 102 101 102 105 106 103 96 91 94
347 31 43 85 219 250 209 191 155 136 148 182 129 71 94 150 152 164 158 164 168 173 174 170 177 176 175 177 169 166 155 149 147 141 142 127 142 120 107 106 103 106 105 109 112 110 102 105 100
53 86 53 348 257 274 252 173 159 141 144 143 151 151 125 157 175 184 165 169 178 173 174 167 172 173 174 178 168 159 154 150 155 166 155 143 128 120 106 109 111 111 112 116 116 110 105 99 96
95 95 81 224 260 299 311 170 158 145 150 145 111 127 143 179 195 167 164 168 179 191 172 170 165 167 167 166 157 158 158 166 174 200 188 138 129 126 123 121 118 117 120 120 120 117 111 102 92
121 97 184 226 265 302 213 189 185 170 150 176 149 116 178 182 179 167 169 175 193 194 185 178 168 171 162 165 168 170 167 175 182 189 165 158 140 136 132 127 124 126 128 129 130 127 123 119 100
98 98 150 191 220 278 23 165 237 167 104 148 161 171 193 183 171 172 184 190 196 200 196 191 184 181 176 168 166 175 184 185 186 179 168 153 147 146 142 134 135 136 139 140 137 132 127 120 113
100 63 186 187 137 295 333 177 156 164 153 180 186 188 184 178 172 183 190 195 205 206 205 201 199 189 186 186 177 175 183 186 190 189 170 163 156 156 152 147 151 151 154 149 146 140 134 131 176
137 141 215 187 152 175 312 246 163 160 149 171 179 186 182 183 181 188 197 202 206 202 200 204 205 202 195 195 197 192 191 196 201 202 190 175 168 167 168 164 165 167 168 164 164 166 172 167 202
159 193 174 247 109 45 346 107 273 152 242 213 197 190 180 186 191 196 204 208 207 207 211 214 207 205 207 205 206 204 202 206 208 208 193 185 179 179 182 179 178 179 181 181 179 186 201 211 221
203 255 195 239 352 47 350 321 262 188 240 232 224 202 187 192 197 204 203 204 213 208 218 224 213 211 212 215 216 217 211 209 211 202 197 195 190 192 194 188 192 195 201 202 206 211 209 210 234
217 258 249 237 294 311 285 270 244 248 240 245 208 194 197 200 202 208 208 209 210 217 217 224 223 214 214 217 219 221 221 219 217 210 207 202 200 203 205 201 203 211 216 218 220 225 228 232 249
276 243 275 262 273 295 281 278 295 244 246 230 211 202 203 206 208 206 208 211 211 218 219 223 225 220 221 222 223 224 224 221 219 218 215 212 214 214 214 217 218 222 226 227 228 231 236 239 253
234 302 290 264 253 273 257 294 237 237 226 219 212 209 209 214 212 214 219 215 215 218 221 226 227 228 228 223 228 229 225 223 225 225 223 222 219 219 221 226 228 230 234 236 241 247 245 247 257
141 44 211 273 203 238 188 256 233 219 207 215 219 221 219 219 222 223 225 223 226 223 223 229 232 231 232 232 231 233 232 230 228 227 226 227 228 226 228 231 232 236 240 244 250 253 252 252 245
259 204 210 305 212 180 191 257 265 236 211 215 224 232 230 230 228 231 232 230 230 226 225 227 231 235 234 234 236 240 240 240 236 232 230 230 231 232 234 235 234 239 246 251 254 253 254 253 249
193 201 208 207 245 196 235 257 268 288 234 226 232 237 235 235 236 240 237 236 233 231 230 226 229 234 237 235 233 239 240 240 239 238 233 232 233 233 236 239 238 240 244 248 252 255 254 252 242
160 184 207 227 245 180 227 251 254 254 260 257 245 246 241 238 243 243 240 238 236 234 230 228 229 233 234 235 231 234 237 237 237 237 237 235 236 236 238 240 241 244 248 254 257 259 253 245 236
21 140 262 290 261 179 261 260 254 243 248 249 250 250 248 242 240 241 244 240 236 236 236 230 231 233 234 230 234 237 240 242 245 244 241 238 238 240 241 243 243 245 249 250 250 254 256 245 237
214 216 203 248 338 248 296 272 266 246 243 251 254 255 254 246 240 246 247 246 238 238 235 236 236 234 233 231 234 237 241 243 246 246 242 239 239 239 242 245 246 247 250 252 254 256 257 250 240
232 173 189 251 311 246 95 283 262 256 238 235 247 248 250 249 247 248 245 241 235 238 243 241 241 240 237 232 235 237 238 241 245 246 246 244 243 242 243 245 248 249 251 253 252 253 252 248 240
228 170 199 224 251 331 241 272 270 222 241 240 245 251 251 253 251 249 245 242 245 249 247 246 248 244 241 238 236 239 241 244 248 251 251 248 247 247 247 247 248 250 251 253 253 252 248 246 242
146 80 60 63 175 254 244 216 247 239 211 252 245 256 259 255 254 252 252 249 248 250 249 252 247 245 244 241 239 240 243 245 247 248 249 251 250 250 250 251 252 252 253 254 255 255 252 248 245
176 144 215 215 201 239 189 209 244 271 278 249 258 261 266 263 258 256 254 253 254 252 251 247 244 241 243 243 242 241 244 246 250 252 253 254 255 255 254 254 255 255 257 257 257 256 256 252 250
196 195 205 209 198 254 125 229 243 220 238 247 253 263 266 267 263 261 260 256 250 250 246 245 242 243 243 242 243 245 244 246 250 253 256 256 257 259 260 261 261 261 261 261 262 260 261 257 254
174 213 200 358 123 26 219 277 289 255 262 259 260 256 258 262 261 263 254 262 256 250 246 242 243 243 242 243 243 245 247 248 251 254 255 258 261 262 264 265 265 265 265 265 264 263 262 261 260
169 140 190 210 219 246 246 264 237 241 243 254 261 255 257 266 268 261 258 256 252 250 244 241 244 246 247 247 244 247 250 251 253 256 257 261 264 265 267 268 269 270 270 268 266 265 265 263 263
192 207 225 327 175 218 269 257 210 215 222 231 246 274 270 263 262 254 252 250 249 249 244 242 243 245 246 246 247 245 249 254 257 257 260 263 266 269 271 273 273 273 273 273 272 270 270 269 268
234 216 198 211 207 260 31 264 177 216 266 272 271 279 273 247 236 233 242 248 246 246 244 240 240 240 244 247 249 249 252 255 258 261 264 267 270 272 273 275 276 275 275 276 275 276 275 274 275